{"data":{"norad_id":63963,"epoch":"2026-05-25T03:56:19.435776Z","epoch_age_seconds":51104,"freshness":"FRESH","line1":"1 63963U 25099M   26145.16411384  .00018424  00000+0  67697-3 0  9994","line2":"2 63963  42.9988 104.1918 0000804 257.2104 102.8658 15.27598723 59032","mean_motion":15.27598723,"eccentricity":8.04e-5,"inclination_deg":42.9988,"raan_deg":104.1918,"arg_perigee_deg":257.2104,"mean_anomaly_deg":102.8658,"bstar":0.00067697,"rev_number":5903,"period_min":94.265593334094,"perigee_km":482.44139836004,"apogee_km":483.54466806938,"semimajor_km":6861.1300332147,"source":"CELESTRAK","updated_at":"2026-05-25T13:38:20.213072Z"}}